Voltar ao catálogo

IUS R/B(1)

AtivoGTO
NORAD 16118·ROCKET BODY·🇺🇸 United States

Lançado Oct 3, 1985 de Cape Canaveral Space Force Station

Loading…

TLE

ObsoletoSource: Space-Track

Época: Sep 12, 2026, 01:24 UTC

1 16118U 85092D   26255.05886737 -.00000052  00000-0  68279-3 0  9998
2 16118  25.1605 126.3114 7165068 239.3262  32.2377  2.29193116 62811

Acompanhe IUS R/B(1) em tempo real com AllMySat

Download on the App Store